Location: Unspecified
(0.0000°N, 0.0000°E)
Time: 22:18:14
(UTC+00:00)

Hubble Space Telescope - Pass Details

Date: 20 September 2017
Orbit: 537 x 541 km, 28.5° (Epoch: 22 November)

Event Time Altitude Azimuth Distance (km) Brightness Sun altitude
Rises 19:30:33 0° 278° (W) 2,670 5.7 -24.3°
Reaches altitude 10° 19:33:08 10° 263° (W) 1,781 4.5 -25.0°
Maximum altitude 19:36:29 24° 209° (SSW) 1,145 2.7 -25.8°
Enters shadow 19:36:52 23° 200° (SSW) 1,157 2.6 -25.9°
